Flag for Netherlands Weather past 2 weeks in Rotterdam, Netherlands

Now
55 °F

Cool.


Feels Like: 52 °F
Forecast: 46 / 56 °F
Wind: 15 mph from Southwest

Location: Rotterdam Zestienhoven Airport

Current Time: Apr 25, 2015 at 9:20:57 PM

Latest Report: Apr 25, 2015 at 8:55 PM


Visibility: N/A

Pressure: 29.71 "Hg

Humidity: 72%

Dew point: 46 °F

Location of RotterdamLocation

Historic Weather in Rotterdam — Graph

°F

Rotterdam temperature yesterday

Maximum temperature yesterday: 66 °F (at 2:55 PM)
Minimum temperature yesterday: 36 °F (at 5:55 AM)
Average temperature yesterday: 52 °F

Past Weeks' High & Low Weather Summary

 TemperatureHumidityPressure
High70 °F (Apr 15, 1:55 PM)100% (Apr 16, 2:55 AM)30.51 "Hg (Apr 16, 2:55 AM)
Low34 °F (Apr 19, 5:55 AM)39% (Apr 21, 4:55 PM)29.71 "Hg (Apr 25, 11:25 AM)
Average50 °F75%30.18 "Hg
* Reported Apr 10 7:25 PM — Apr 25 7:55 PM, Rotterdam, Weather by CustomWeather, © 2015

Note: Actual official high and low records may vary slightly from our data, if they occured in-between our weather recording intervals... More about our weather records

Advertising

Rotterdam weather history for previous 24 hours

 ConditionsComfort  
Time TempWeatherWind HumidityBarometerVisibility
7:55 PM
Sat, Apr 25
57 °FClear.18 mph67%29.71 "HgN/A
7:25 PM59 °FCool.14 mph68%29.71 "HgN/A
6:55 PM59 °FClear.17 mph72%29.71 "HgN/A
6:25 PM59 °FClear.14 mph72%29.71 "HgN/A
5:55 PM59 °FBroken clouds.16 mph72%29.71 "HgN/A
5:25 PM59 °FPassing clouds.14 mph72%29.71 "HgN/A
4:55 PM59 °FBroken clouds.16 mph77%29.71 "HgN/A
4:25 PM57 °FPartly sunny.13 mph82%29.71 "HgN/A
3:55 PM57 °FMostly cloudy.13 mph77%29.71 "HgN/A
3:25 PM57 °FBroken clouds.13 mph82%29.71 "HgN/A
2:55 PM57 °FPassing clouds.16 mph77%29.71 "HgN/A
2:25 PM59 °FBroken clouds.13 mph77%29.71 "HgN/A
1:55 PM61 °FScattered clouds.15 mph77%29.71 "HgN/A
1:25 PM57 °FBroken clouds.12 mph88%29.71 "Hg4 mi
12:55 PM55 °FRain. Partly sunny.12 mph88%29.71 "Hg2 mi
12:25 PM55 °FFog.12 mph94%29.71 "Hg3 mi
11:55 AM55 °FDrizzle. Cloudy.12 mph88%29.71 "Hg3 mi
11:25 AM55 °FFog.9 mph88%29.71 "Hg2 mi
10:55 AM54 °FDrizzle. Broken clouds.10 mph94%29.74 "Hg2 mi
10:25 AM54 °FDrizzle. Broken clouds.10 mph94%29.74 "Hg3 mi
9:55 AM54 °FFog.10 mph94%29.74 "Hg3 mi
9:25 AM54 °FDrizzle. More clouds than sun.9 mph88%29.74 "Hg5 mi
8:55 AM52 °FDrizzle. More clouds than sun.10 mph94%29.74 "Hg5 mi
8:25 AM52 °FDrizzle. Broken clouds.12 mph94%29.74 "Hg4 mi
7:55 AM52 °FLight rain. Partly sunny.9 mph94%29.74 "Hg4 mi
7:25 AM52 °FDrizzle. More clouds than sun.9 mph94%29.74 "Hg4 mi
6:55 AM52 °FPassing clouds.9 mph88%29.74 "Hg4 mi
6:25 AM52 °FPassing clouds.9 mph88%29.74 "Hg6 mi
5:55 AM52 °FClear.10 mph88%29.74 "Hg6 mi
5:25 AM52 °FClear.7 mph88%29.74 "HgN/A
4:55 AM52 °FClear.8 mph82%29.74 "HgN/A
4:25 AM52 °FPassing clouds.10 mph82%29.74 "HgN/A
3:55 AM52 °FClear.12 mph82%29.74 "HgN/A
3:25 AM52 °FClear.9 mph82%29.77 "HgN/A
2:55 AM52 °FClear.9 mph82%29.77 "HgN/A
2:25 AM52 °FClear.9 mph82%29.77 "HgN/A
1:55 AM54 °FClear.9 mph77%29.77 "HgN/A
1:25 AM54 °FClear.9 mph72%29.77 "HgN/A
12:55 AM52 °FClear.12 mph82%29.80 "HgN/A
12:25 AM54 °FClear.10 mph77%29.80 "HgN/A
11:55 PM
Fri, Apr 24
52 °FClear.13 mph82%29.80 "HgN/A
11:25 PM54 °FClear.14 mph77%29.80 "HgN/A
10:55 PM54 °FClear.14 mph77%29.80 "HgN/A
10:25 PM54 °FClear.14 mph77%29.80 "HgN/A
9:55 PM54 °FClear.12 mph77%29.80 "HgN/A
9:25 PM54 °FClear.10 mph82%29.80 "Hg4 mi
Weather by CustomWeather, © 2015

See weather overviewHow to use our weather pages